PRF420 HTZA-HTAR

Flight info

Callsign PRF420
Flight time N/A
Altitude 18000
Route OKPOL DCT GEREN
Aircraft AT75/M-SDFGIRY/S

Departure

Time 2026-05-07 17:01
Airport Abeid Amani Karume International Airport (HTZA)

Arrival

Time N/A
Airport Arusha Airport (HTAR)
Time Latitude Longitude Altitude Speed Heading
2026-05-07 16:47 -6.21861 39.22205 52 ft 0 kts 264°
2026-05-07 16:55 -6.21861 39.22208 52 ft 1 kts 264°
2026-05-07 16:56 -6.21860 39.22214 52 ft 1 kts 264°
2026-05-07 16:56 -6.21860 39.22221 52 ft 1 kts 264°
2026-05-07 16:56 -6.21858 39.22236 52 ft 1 kts 264°
2026-05-07 16:57 -6.21857 39.22243 50 ft 1 kts 268°
2026-05-07 16:57 -6.21859 39.22253 52 ft 2 kts 288°
2026-05-07 16:57 -6.21864 39.22266 49 ft 2 kts 327°
2026-05-07 16:57 -6.21869 39.22269 50 ft 0 kts 358°
2026-05-07 16:58 -6.21841 39.22281 50 ft 7 kts 29°
2026-05-07 16:58 -6.21806 39.22281 53 ft 6 kts 355°
2026-05-07 16:59 -6.21789 39.22287 53 ft 2 kts 33°
2026-05-07 16:59 -6.21776 39.22297 51 ft 3 kts 42°
2026-05-07 16:59 -6.21768 39.22311 53 ft 2 kts 77°
2026-05-07 16:59 -6.21766 39.22328 54 ft 6 kts 84°
2026-05-07 17:00 -6.21760 39.22406 56 ft 16 kts 85°
2026-05-07 17:00 -6.21769 39.22452 54 ft 2 kts 140°
2026-05-07 17:00 -6.21840 39.22455 57 ft 29 kts 172°
2026-05-07 17:00 -6.22249 39.22496 53 ft 84 kts 175°
2026-05-07 17:01 -6.22953 39.22570 57 ft 118 kts 170°
2026-05-07 17:01 -6.23800 39.22607 246 ft 124 kts 176°
2026-05-07 17:01 -6.24698 39.22640 462 ft 132 kts 176°
2026-05-07 17:01 -6.25631 39.22630 722 ft 138 kts 192°
2026-05-07 17:02 -6.26419 39.22020 970 ft 157 kts 231°
2026-05-07 17:02 -6.26893 39.20995 1336 ft 164 kts 243°
2026-05-07 17:02 -6.27706 39.20254 1704 ft 158 kts 204°
2026-05-07 17:02 -6.28425 39.19418 2001 ft 175 kts 248°
2026-05-07 17:03 -6.28610 39.18120 2050 ft 197 kts 261°
2026-05-07 17:03 -6.28736 39.16715 2310 ft 206 kts 263°
2026-05-07 17:03 -6.28464 39.15301 2574 ft 215 kts 300°
2026-05-07 17:03 -6.27315 39.14335 2857 ft 222 kts 340°
2026-05-07 17:04 -6.25790 39.14034 3118 ft 226 kts 352°
2026-05-07 17:04 -6.24228 39.13764 3348 ft 230 kts 351°
2026-05-07 17:04 -6.22645 39.13373 3490 ft 239 kts 335°
2026-05-07 17:04 -6.21713 39.12775 3536 ft 241 kts 325°
2026-05-07 17:05 -6.19732 39.11606 3680 ft 250 kts 332°
2026-05-07 17:05 -6.18714 39.11064 3826 ft 250 kts 332°
2026-05-07 17:05 -6.16678 39.09958 4134 ft 251 kts 331°
2026-05-07 17:05 -6.15165 39.09086 4359 ft 251 kts 329°
2026-05-07 17:06 -6.14142 39.08489 4511 ft 251 kts 330°
2026-05-07 17:06 -6.12624 39.07606 4733 ft 252 kts 329°
2026-05-07 17:06 -6.11119 39.06730 4935 ft 252 kts 329°
2026-05-07 17:06 -6.09597 39.05847 5143 ft 252 kts 330°
2026-05-07 17:07 -6.08080 39.04967 5370 ft 252 kts 330°
2026-05-07 17:07 -6.06562 39.04084 5591 ft 252 kts 329°
2026-05-07 17:07 -6.05043 39.03204 5803 ft 252 kts 329°
2026-05-07 17:07 -6.03525 39.02322 6022 ft 252 kts 330°
2026-05-07 17:08 -6.02005 39.01443 6249 ft 252 kts 329°
2026-05-07 17:08 -6.00486 39.00562 6462 ft 252 kts 330°
2026-05-07 17:08 -5.98965 38.99681 6672 ft 252 kts 329°
2026-05-07 17:08 -5.97454 38.98804 6895 ft 251 kts 329°
2026-05-07 17:09 -5.95960 38.97936 7226 ft 246 kts 329°
2026-05-07 17:09 -5.94484 38.97081 7557 ft 242 kts 329°
2026-05-07 17:09 -5.93037 38.96243 7885 ft 239 kts 329°
2026-05-07 17:09 -5.91622 38.95421 8208 ft 236 kts 329°
2026-05-07 17:10 -5.90207 38.94597 8556 ft 234 kts 329°
2026-05-07 17:10 -5.88801 38.93785 8901 ft 232 kts 329°
2026-05-07 17:10 -5.87405 38.92977 9246 ft 230 kts 329°
2026-05-07 17:10 -5.86245 38.92304 9539 ft 228 kts 329°
2026-05-07 17:11 -5.85246 38.91723 9797 ft 227 kts 329°
2026-05-07 17:14 -5.84691 38.91402 9931 ft 226 kts 329°
2026-05-07 17:15 -5.83336 38.90618 10253 ft 224 kts 329°
2026-05-07 17:15 -5.81983 38.89833 10581 ft 223 kts 329°
2026-05-07 17:15 -5.80643 38.89057 10906 ft 221 kts 329°
2026-05-07 17:15 -5.79311 38.88286 11241 ft 220 kts 330°
2026-05-07 17:16 -5.77989 38.87520 11567 ft 219 kts 329°
2026-05-07 17:16 -5.76673 38.86757 11909 ft 218 kts 330°
2026-05-07 17:16 -5.75380 38.86008 12250 ft 216 kts 330°
2026-05-07 17:16 -5.74077 38.85254 12567 ft 217 kts 330°
2026-05-07 17:17 -5.72755 38.84489 12788 ft 221 kts 330°
2026-05-07 17:17 -5.71418 38.83714 13055 ft 222 kts 330°
2026-05-07 17:17 -5.70071 38.82934 13328 ft 223 kts 330°
2026-05-07 17:17 -5.68725 38.82154 13609 ft 223 kts 330°
2026-05-07 17:18 -5.67374 38.81370 13862 ft 224 kts 330°
2026-05-07 17:18 -5.66021 38.80585 14081 ft 225 kts 330°
2026-05-07 17:18 -5.64672 38.79806 14273 ft 228 kts 330°
2026-05-07 17:18 -5.63291 38.79006 14435 ft 231 kts 330°
2026-05-07 17:19 -5.61890 38.78195 14589 ft 234 kts 330°
2026-05-07 17:19 -5.60475 38.77375 14752 ft 236 kts 330°
2026-05-07 17:19 -5.59047 38.76548 14918 ft 238 kts 330°
2026-05-07 17:19 -5.57609 38.75715 15081 ft 239 kts 330°